Location: Arroyo de Valdeoliva
(40.1604°N, 4.9878°W)
Time: 05:16:19
(UTC+00:00)

BlueWalker 3 - Pass Details

Date: 11 December 2025
Orbit: 452 x 463 km, 53.2° (Epoch: 13 January)

Event Time Altitude Azimuth Distance (km) Brightness Sun altitude
Rises 17:57:59 0° 300° (WNW) 2,491 6.1 -11.8°
Maximum altitude 18:03:27 28° 229° (SW) 905 4.0 -12.8°
Drops below altitude 10° 18:06:35 10° 169° (S) 1,604 4.6 -13.4°
Sets 18:08:54 0° 157° (SSE) 2,475 5.4 -13.8°
